Location: ?ern� Novina
(50.6762°N, 14.8696°E)
Time: 17:55:34
(UTC+00:00)

SL-16 R/B - Pass Details

Date: 03 March 2021
Orbit: 842 x 846 km, 71.0° (Epoch: 13 April)

Event Time Altitude Azimuth Distance (km) Brightness Sun altitude
Rises 17:47:57 0° 206° (SSW) 3,390 5.7 -10.7°
Reaches altitude 10° 17:50:23 10° 206° (SSW) 2,460 4.9 -11.1°
Maximum altitude 17:56:03 86° 119° (ESE) 854 2.2 -12.0°
Drops below altitude 10° 18:01:45 10° 30° (NNE) 2,478 4.4 -12.9°
Sets 18:04:13 0° 31° (NNE) 3,417 5.1 -13.2°
